Location: Derby
(52.9213°N, 1.4761°W)
Time: 17:43:19
(UTC+01:00)

Tiros 1 - Pass Details

Date: 21 May 2025
Orbit: 620 x 651 km, 48.4° (Epoch: 13 June)

Event Time Altitude Azimuth Distance (km) Brightness Sun altitude
Rises 17:16:11 0° 198° (SSW) 2,882 10.8 32.0°
Reaches altitude 10° 17:19:29 10° 173° (S) 1,984 9.8 31.5°
Maximum altitude 17:21:48 14° 142° (SE) 1,744 9.2 31.2°
Drops below altitude 10° 17:24:08 10° 111° (ESE) 1,996 9.3 30.8°
Sets 17:27:28 0° 86° (E) 2,913 10.0 30.3°
